Temperature
14 14 14 14 12 11 12 13 13 14 15 17 18 18 18 18 19 20 21 21 21 21 20 19 19 18 18 17 17 17 17 17 17 16 16 16 16 16 16 15 15 15 15 15 15 15 15 14 14
13 14 14 14 12 12 13 13 13 14 16 17 18 18 18 19 20 20 20 21 20 20 19 19 18 18 17 17 17 16 16 16 16 16 16 16 16 16 15 15 15 15 15 15 14 14 14 14 14
13 13 14 11 11 12 14 14 13 15 16 17 17 18 18 19 19 19 20 20 20 19 19 18 18 17 17 17 16 16 16 16 16 16 16 16 16 15 15 15 15 15 15 14 14 14 14 14 14
13 13 12 11 12 12 13 14 14 14 16 17 17 17 18 18 18 19 19 19 19 19 18 18 17 17 17 16 16 16 16 16 16 16 16 16 15 15 15 15 15 15 14 14 14 14 14 13 13
13 12 11 11 12 12 12 13 14 14 14 16 16 15 17 18 18 19 19 19 19 18 18 17 17 17 16 16 16 16 16 16 16 16 16 15 15 15 15 15 15 14 14 14 14 13 13 13 13
12 10 10 11 11 12 12 14 14 13 14 15 15 15 17 18 18 18 18 18 18 17 17 17 16 16 16 16 16 16 16 16 16 15 15 15 15 15 15 14 14 14 14 14 13 13 13 13 13
11 9 10 10 10 11 13 14 13 13 13 14 15 14 16 17 17 17 17 17 17 16 16 16 16 16 16 16 16 16 16 15 15 15 15 15 15 14 14 14 14 14 13 13 13 13 13 13 13
11 9 10 10 10 11 12 13 13 13 13 14 15 14 15 16 16 16 16 16 16 16 16 16 16 16 15 15 15 15 15 15 15 15 15 15 14 14 14 14 14 13 13 13 13 13 12 12 12
11 9 9 9 10 11 11 11 12 13 13 14 14 14 15 15 15 15 15 15 15 15 16 15 15 15 15 15 15 15 15 15 15 15 14 14 14 14 14 13 13 13 13 13 13 12 12 12 12
10 8 9 10 10 10 11 11 12 12 11 12 13 14 14 14 14 14 14 14 15 15 15 15 15 15 15 15 15 15 15 15 15 14 14 14 14 14 14 13 13 13 13 13 12 12 12 12 12
8 8 9 9 10 10 10 11 11 11 10 11 12 13 13 13 13 14 14 14 14 14 15 15 15 15 15 15 15 14 14 14 14 14 14 14 14 14 13 13 13 12 12 12 12 12 12 12 12
8 8 9 9 10 10 10 10 10 10 11 12 12 12 12 12 13 13 13 13 14 14 14 14 14 14 15 15 14 14 14 14 14 14 14 14 14 13 13 13 13 12 12 12 12 12 12 12 12
7 8 9 9 9 9 9 9 9 10 11 12 12 12 12 12 12 13 13 13 13 14 14 14 14 14 14 14 14 14 14 14 14 14 14 14 14 13 13 13 13 12 12 12 12 12 12 12 12
7 7 8 8 9 9 9 9 9 10 11 12 12 12 12 12 12 12 12 13 13 13 14 14 14 14 14 14 14 14 14 14 14 14 14 14 13 13 13 13 13 12 12 12 12 11 11 11 11
7 6 7 7 8 8 8 8 8 11 11 11 11 11 11 11 12 12 12 12 13 13 13 14 14 14 14 14 14 14 14 14 14 13 13 13 13 13 13 13 13 12 12 12 12 11 11 11 11
6 6 6 7 8 8 8 7 9 10 10 10 10 10 11 11 11 11 12 12 12 13 13 13 13 13 13 13 13 13 13 13 13 13 13 13 13 13 13 13 13 12 12 12 11 11 11 11 11
5 5 6 6 7 8 7 7 8 10 9 9 9 10 10 10 11 11 11 12 12 12 12 13 13 13 13 13 13 13 13 13 13 13 13 13 13 13 13 13 12 12 12 11 11 11 11 11 11
6 5 6 6 7 7 7 7 8 9 9 9 9 9 10 10 11 11 11 11 12 12 12 12 12 12 12 13 12 12 13 13 13 13 13 13 12 12 12 12 12 12 12 11 11 11 11 11 11
6 6 5 6 7 7 6 7 8 8 8 8 9 9 9 10 11 11 11 11 11 11 12 12 12 12 12 12 12 12 12 12 13 13 13 13 12 12 12 12 12 12 11 11 11 11 10 10 10
6 5 5 6 7 7 6 6 7 7 7 8 8 9 9 9 10 10 11 11 11 11 11 11 11 11 12 12 12 11 12 12 13 13 12 12 12 12 12 12 12 11 11 11 11 11 10 10 10
5 5 5 6 6 6 6 6 7 7 8 8 8 9 9 9 9 10 10 11 11 11 11 11 11 11 11 11 11 11 11 11 12 12 12 12 12 12 12 11 11 11 11 11 11 11 10 10 10
6 6 6 6 5 4 5 5 6 6 6 7 7 8 9 9 9 10 10 10 11 11 11 11 11 11 11 11 11 10 10 11 11 12 12 12 12 12 11 11 11 11 11 11 11 11 10 10 10
6 6 6 5 5 4 4 4 5 6 6 7 7 8 8 9 9 9 10 10 10 10 10 11 11 11 10 10 10 10 10 10 11 11 11 12 12 12 11 11 11 11 11 11 11 10 10 10 10
6 5 5 4 3 4 4 4 5 5 6 7 7 8 8 8 9 9 9 9 10 10 10 10 10 10 10 10 10 10 10 10 10 10 11 11 11 11 11 11 11 11 11 11 11 11 10 10 10
5 5 4 4 3 4 5 4 5 6 6 6 6 7 8 8 8 9 9 9 9 9 9 10 10 10 10 10 10 10 10 10 10 10 10 10 10 11 11 11 11 11 11 11 11 10 10 10 10
5 5 4 4 4 4 4 5 5 6 6 6 7 7 7 8 8 8 8 8 9 9 9 9 9 9 9 9 9 9 9 9 9 10 10 10 10 10 11 11 10 11 11 11 10 10 10 10 10
5 4 4 4 3 3 4 4 4 6 5 5 6 6 6 7 7 8 8 8 8 8 8 9 9 9 9 9 9 9 9 9 9 9 9 9 10 10 10 10 10 10 10 10 10 10 10 10 10
5 4 3 3 3 3 4 3 4 5 5 5 5 5 6 7 7 7 7 7 8 8 8 8 8 8 9 9 8 8 9 9 9 9 9 9 10 10 10 10 10 10 10 10 10 10 10 10 10
4 4 3 3 3 3 4 5 5 5 5 5 4 5 6 6 7 7 7 7 7 8 8 8 8 8 8 8 8 8 8 9 9 9 9 9 9 10 10 10 10 10 10 10 10 10 10 9 10
4 3 3 3 2 2 2 5 6 5 4 4 4 5 6 6 6 6 6 7 7 7 7 7 7 7 7 7 7 7 8 8 8 8 8 9 9 9 9 9 9 10 10 10 9 9 9 9 9
Wind_Speed
6 3 3 4 4 1 6 6 4 3 4 3 3 4 4 5 4 3 4 2 2 5 10 14 17 18 18 18 17 17 17 17 17 17 17 17 17 17 16 16 15 15 15 15 15 15 14 15 15
2 2 3 4 3 4 7 6 7 6 4 4 3 2 2 5 3 3 4 2 2 5 9 11 15 17 18 18 17 17 17 17 17 17 17 17 17 16 16 16 16 15 15 15 15 15 15 15 15
1 3 3 3 5 9 6 3 6 6 6 4 4 2 2 4 2 2 4 2 3 5 6 9 14 16 17 18 18 18 17 17 17 17 17 17 17 16 16 16 16 15 15 15 15 15 15 15 15
3 3 2 3 11 9 5 2 2 5 5 2 2 5 4 3 1 3 3 1 3 4 5 7 12 15 16 17 17 18 18 18 17 17 17 17 17 16 16 16 16 15 15 15 15 15 15 15 15
4 3 2 7 12 7 4 5 3 4 5 3 3 5 5 3 2 2 1 2 3 3 4 7 10 13 15 16 17 17 18 18 17 17 17 17 17 16 16 16 16 16 15 15 15 15 15 15 15
3 2 4 10 11 6 4 4 4 5 5 5 3 4 6 2 4 4 1 1 2 3 3 6 10 10 12 15 16 17 18 18 18 17 17 17 17 17 16 16 16 16 16 15 15 15 15 15 15
4 2 6 7 7 7 4 2 3 5 6 6 3 4 6 5 6 4 2 1 2 2 2 3 7 9 10 12 14 16 17 18 17 17 17 17 17 17 17 17 16 16 16 16 15 15 15 15 15
4 2 5 6 7 8 3 4 3 4 7 5 3 4 6 7 6 4 2 1 2 3 3 3 4 6 7 8 11 14 16 17 17 17 16 16 16 17 17 16 16 16 16 16 16 15 15 15 15
3 2 8 7 7 6 3 5 6 5 6 6 5 6 6 7 4 2 2 2 3 4 4 4 5 5 6 7 9 11 13 16 16 15 15 15 12 13 14 15 16 16 16 16 16 15 14 14 14
3 6 9 5 4 5 6 7 7 6 8 8 9 8 6 5 3 3 5 6 6 7 6 6 6 6 5 6 6 7 8 10 11 11 12 11 10 11 12 15 16 16 15 15 15 14 14 12 10
3 7 5 6 6 6 8 9 7 7 12 10 10 10 8 7 7 7 8 9 9 8 7 7 7 7 7 5 4 4 5 6 8 11 11 10 9 9 9 9 10 11 12 10 10 10 9 9 9
3 6 7 7 6 6 8 8 8 11 15 11 12 10 9 10 10 9 9 9 9 8 9 8 7 7 7 7 5 5 4 4 6 9 12 9 6 6 6 6 7 7 7 7 7 6 7 8 9
5 6 7 9 11 11 11 12 11 15 14 12 12 11 11 12 12 10 9 9 9 10 10 9 8 8 7 7 6 6 6 6 6 9 11 11 8 7 7 6 7 7 8 7 6 6 6 6 6
4 5 8 9 11 8 10 13 9 14 9 10 11 11 10 11 11 9 9 9 10 10 10 9 9 9 7 7 7 7 6 6 7 8 11 13 10 9 8 8 7 8 8 8 7 7 7 6 6
3 6 9 7 7 5 5 12 10 12 8 11 12 11 11 11 10 10 10 10 10 10 9 9 9 9 9 8 7 7 6 7 7 7 11 13 12 11 10 9 8 8 10 10 8 6 6 5 5
2 3 6 6 4 4 3 13 11 8 8 12 12 12 11 12 10 11 10 10 9 9 8 8 8 9 9 8 7 6 7 7 8 8 9 12 14 13 11 9 9 10 9 9 8 7 6 6 6
1 4 7 9 4 3 4 13 14 11 9 13 13 12 11 11 11 11 9 9 9 9 8 7 8 9 9 8 7 7 7 7 7 8 9 10 13 14 11 9 9 11 9 8 9 7 7 7 7
5 5 7 8 5 5 9 16 19 13 10 12 12 11 11 11 12 11 9 8 8 9 8 8 7 8 8 7 5 5 5 6 7 8 9 11 12 13 12 9 10 11 9 9 9 9 7 6 7
4 6 11 12 9 8 13 18 20 16 11 11 10 10 10 11 10 9 8 7 7 7 7 7 7 7 7 6 6 6 7 7 7 8 10 12 12 13 12 10 10 11 10 11 12 8 9 6 6
7 9 11 11 6 8 13 18 17 13 10 9 9 9 9 9 9 8 7 6 6 7 7 7 7 7 8 7 7 6 6 6 8 7 8 11 12 13 12 12 11 11 10 12 12 10 7 6 7
7 8 8 10 11 7 9 11 8 7 6 7 7 7 6 7 9 9 7 6 6 7 7 7 8 8 9 8 5 4 4 3 4 6 7 9 11 13 13 13 12 12 12 12 13 13 12 9 7
7 7 8 9 7 6 3 8 8 6 7 7 7 6 6 7 7 8 7 6 6 7 6 7 7 8 8 8 8 9 8 8 8 7 7 8 10 12 14 13 13 13 11 12 13 13 10 11 9
7 4 5 6 5 6 4 5 9 5 6 7 6 6 6 6 7 8 6 6 6 6 5 5 5 6 6 7 9 9 9 9 6 6 7 8 9 11 13 13 13 13 12 12 13 12 12 10 10
3 3 3 2 1 4 4 5 7 4 6 7 6 6 6 7 7 6 5 5 5 5 4 4 4 5 5 6 8 9 10 8 7 8 8 8 7 8 11 12 12 13 12 13 14 14 15 13 11
2 3 4 5 3 6 2 4 8 8 6 6 7 7 7 7 6 5 5 5 5 5 5 5 5 5 5 6 7 8 10 9 10 9 9 8 7 8 11 11 12 12 13 13 13 13 14 14 14
2 4 3 3 5 6 4 6 7 7 6 5 4 4 5 6 5 5 5 5 5 5 6 5 5 6 6 6 6 7 8 7 7 8 8 8 8 9 10 11 12 13 13 13 13 12 13 13 13
3 3 4 3 3 5 6 7 8 6 6 5 5 6 6 6 6 5 5 5 5 5 6 6 6 6 6 7 7 7 7 7 8 8 8 7 7 7 9 10 11 12 12 12 13 12 13 13 14
3 4 3 2 3 6 7 5 5 6 6 6 6 6 7 7 7 6 5 6 6 6 6 4 5 5 5 5 6 5 6 7 8 7 8 8 7 7 8 10 10 11 11 12 12 12 13 14 13
3 3 3 3 3 4 6 7 5 5 5 4 6 6 7 8 8 7 6 6 6 6 5 4 4 4 4 4 5 5 6 6 6 6 7 7 7 6 7 9 9 11 11 11 12 12 13 15 13
5 6 6 4 6 5 5 9 4 5 5 4 6 7 7 8 7 7 7 7 6 7 6 5 4 4 5 5 5 6 6 5 5 6 7 7 7 7 7 8 9 10 11 11 13 13 13 14 15
Wind_Direction
351 29 70 62 60 37 243 238 219 250 244 247 236 210 204 206 191 232 312 128 122 155 173 181 177 175 173 172 169 166 163 159 156 155 153 152 151 150 150 149 147 143 140 136 133 131 129 124 120
352 49 63 75 135 226 250 230 222 229 254 308 295 249 261 267 275 301 329 277 166 159 170 179 181 178 175 175 174 171 169 165 162 160 158 156 155 154 152 152 150 147 143 139 135 134 130 126 124
23 54 101 121 192 214 230 227 229 262 278 302 309 302 259 274 306 298 296 245 148 157 168 179 181 181 180 180 178 175 173 170 168 165 163 161 160 159 156 156 154 149 144 141 139 136 133 130 128
81 53 68 197 231 228 224 250 291 311 317 310 320 306 294 277 262 283 307 123 134 166 169 179 182 185 186 185 182 178 176 175 174 170 167 166 165 163 161 159 155 151 146 145 144 139 138 135 134
63 87 191 240 243 245 246 270 288 302 303 310 329 288 284 300 327 341 31 132 155 174 178 180 185 190 192 188 185 181 179 177 176 174 172 171 168 165 162 160 157 155 152 151 149 146 145 142 141
72 94 203 239 247 258 252 260 275 279 283 299 303 275 265 300 352 345 359 186 181 177 186 183 188 192 197 195 190 187 182 179 178 178 176 175 173 169 166 164 162 159 157 156 155 153 151 148 145
125 154 226 244 264 269 265 265 236 273 281 275 262 266 281 312 331 332 333 196 186 190 189 195 191 192 196 199 197 191 186 184 181 180 179 177 176 174 172 168 166 164 162 161 161 159 157 154 149
132 146 242 246 253 262 289 314 290 284 273 278 242 243 275 304 324 337 344 219 198 203 201 214 205 196 194 195 197 196 192 188 184 182 180 177 177 177 175 171 171 170 167 167 165 163 161 157 152
107 203 239 238 241 261 312 319 303 290 274 276 256 250 276 304 319 334 312 272 238 229 215 213 213 204 195 194 198 196 195 192 186 184 177 174 175 174 173 173 174 174 173 170 168 166 163 156 152
140 218 237 240 244 268 285 282 291 304 290 282 280 279 295 296 287 268 258 253 240 239 228 211 213 208 200 200 193 191 193 190 185 179 174 171 168 169 170 174 173 176 175 173 171 168 162 149 142
189 226 256 272 271 277 278 277 269 264 270 261 270 282 289 291 277 258 249 243 236 230 229 219 212 208 201 200 193 186 178 179 178 174 171 167 163 164 165 167 172 172 170 166 165 157 146 143 142
232 251 252 269 286 286 277 278 271 245 252 260 264 270 270 275 275 257 253 254 246 237 230 223 214 210 207 197 195 193 187 186 186 177 174 167 167 167 166 165 164 162 162 155 151 147 144 147 152
242 266 264 267 278 273 273 266 268 263 263 270 271 268 261 261 267 263 251 253 250 238 231 222 215 211 209 200 198 197 196 194 189 183 181 178 177 178 175 173 170 168 166 161 158 155 154 156 157
265 278 285 279 275 269 267 273 263 266 273 277 276 273 266 260 261 270 264 254 252 244 234 223 215 210 207 206 204 200 198 193 186 193 189 185 183 181 180 180 179 177 173 171 168 165 165 168 164
296 301 298 272 263 265 285 283 247 263 287 283 282 278 272 265 261 263 259 250 249 246 236 224 216 209 207 207 211 204 198 195 194 197 195 191 188 185 184 185 187 186 179 170 163 161 158 167 169
329 317 297 283 273 264 253 273 272 280 285 281 280 279 274 269 260 260 262 255 249 246 235 227 220 210 208 209 212 207 201 201 198 195 197 199 194 189 187 190 193 186 178 172 172 171 171 177 176
342 281 272 292 268 255 242 270 282 291 281 278 279 277 273 274 271 266 264 261 250 244 233 226 220 210 208 210 215 211 203 206 203 197 196 201 201 195 192 195 193 184 180 181 180 181 176 180 181
259 263 272 276 279 278 270 271 285 290 276 274 274 271 269 270 270 270 267 263 254 245 233 224 222 213 206 204 210 214 209 211 209 205 202 200 202 200 195 196 192 184 186 186 182 180 179 179 176
253 263 274 273 280 284 271 277 285 288 283 276 271 266 268 270 270 273 268 260 258 243 233 227 221 217 202 199 203 212 214 214 215 213 206 203 204 202 200 200 193 189 193 194 185 181 178 181 159
252 270 276 286 283 282 281 280 279 275 266 262 262 266 272 284 293 291 283 268 257 244 236 231 225 222 211 205 206 214 213 216 219 214 208 205 206 205 205 203 198 194 193 193 189 180 179 180 172
255 245 263 280 307 294 297 292 283 285 278 276 266 265 268 272 281 287 284 274 266 251 238 238 231 227 223 211 206 216 213 217 217 213 211 209 209 208 204 204 201 197 194 198 194 187 183 186 191
268 244 257 281 303 298 334 301 286 282 294 285 282 285 279 281 282 283 283 278 275 263 251 244 234 229 226 212 205 209 215 220 224 219 218 218 214 212 206 202 203 200 198 198 198 194 190 183 190
241 275 270 277 268 285 254 248 288 303 298 292 286 286 287 287 287 285 281 275 273 271 254 248 237 227 226 214 209 215 224 227 229 225 218 221 220 214 207 202 203 202 200 198 196 195 193 194 195
254 335 320 352 59 281 242 212 288 275 272 295 298 298 303 298 299 296 288 284 278 283 274 257 241 237 236 222 214 218 225 227 229 229 220 221 223 217 210 205 205 206 204 202 200 198 196 198 199
77 50 354 345 341 260 263 237 260 272 282 284 291 300 306 305 301 301 307 305 298 298 287 274 253 244 241 228 226 225 224 220 226 228 223 222 224 225 214 210 208 208 207 204 201 200 201 200 199
187 149 175 252 265 289 295 251 262 282 299 305 304 310 324 321 319 310 305 301 295 294 286 273 263 253 242 230 236 233 228 224 231 230 226 225 226 228 214 210 211 210 208 205 203 203 204 202 204
163 202 188 190 271 278 271 283 302 307 323 336 339 340 327 318 322 318 322 321 308 298 290 277 265 258 244 236 241 241 235 235 239 237 230 230 232 232 218 212 211 210 209 206 204 208 206 204 205
184 161 116 168 263 274 283 275 272 302 306 322 331 327 318 319 321 319 319 315 309 303 297 291 275 253 252 247 241 250 246 245 240 234 232 232 232 231 226 219 215 212 211 209 207 212 208 205 207
160 161 174 190 207 232 281 271 233 246 267 287 305 312 313 317 317 316 309 305 310 315 312 305 298 281 270 264 259 259 258 259 252 241 238 237 236 230 235 228 219 215 213 211 211 212 210 208 207
190 192 171 203 247 228 255 271 251 244 267 284 300 309 313 314 317 321 321 319 321 318 311 304 296 290 285 277 267 259 258 258 254 253 248 244 239 233 235 232 223 219 215 212 213 213 211 211 210
Height
1489 1491 1493 1495 1499 1504 1501 1494 1489 1487 1484 1482 1481 1481 1480 1480 1482 1484 1477 1473 1473 1473 1475 1477 1479 1482 1484 1486 1489 1491 1493 1495 1497 1498 1500 1502 1503 1505 1506 1508 1509 1511 1512 1514 1515 1516 1518 1518 1519
1489 1491 1494 1495 1501 1505 1497 1489 1487 1484 1481 1480 1479 1478 1478 1477 1477 1476 1474 1473 1473 1474 1475 1476 1479 1481 1484 1486 1488 1490 1492 1494 1496 1498 1500 1501 1503 1505 1506 1508 1509 1511 1512 1514 1515 1516 1518 1519 1520
1489 1491 1493 1495 1498 1496 1489 1484 1483 1481 1480 1480 1479 1478 1477 1476 1476 1475 1474 1474 1473 1474 1475 1476 1479 1481 1483 1485 1488 1490 1492 1494 1496 1497 1499 1501 1502 1504 1506 1507 1509 1510 1512 1513 1515 1516 1518 1519 1520
1489 1491 1493 1495 1490 1485 1484 1481 1481 1480 1479 1479 1479 1477 1476 1476 1475 1475 1474 1473 1473 1473 1475 1476 1478 1480 1482 1485 1487 1489 1491 1493 1495 1497 1498 1500 1502 1503 1505 1507 1508 1510 1511 1513 1514 1516 1517 1518 1520
1489 1490 1494 1492 1485 1482 1481 1480 1480 1480 1480 1479 1479 1477 1474 1475 1474 1473 1473 1472 1472 1473 1474 1476 1477 1479 1482 1484 1486 1488 1490 1492 1494 1496 1497 1499 1501 1502 1504 1506 1507 1509 1511 1512 1514 1515 1517 1518 1519
1489 1490 1495 1489 1483 1481 1480 1479 1479 1479 1478 1478 1478 1476 1473 1473 1472 1472 1471 1471 1472 1473 1474 1475 1477 1478 1480 1482 1485 1487 1488 1490 1492 1494 1496 1498 1500 1501 1503 1505 1506 1508 1510 1512 1513 1515 1516 1518 1519
1488 1491 1490 1487 1485 1482 1479 1478 1479 1478 1477 1477 1477 1475 1471 1471 1471 1470 1470 1470 1471 1472 1473 1474 1475 1477 1479 1481 1483 1485 1487 1489 1491 1492 1494 1496 1498 1500 1501 1503 1505 1507 1509 1511 1512 1514 1516 1517 1518
1486 1490 1488 1487 1485 1481 1479 1478 1477 1477 1476 1476 1475 1473 1470 1470 1469 1468 1468 1468 1469 1470 1471 1472 1474 1475 1477 1478 1480 1482 1485 1487 1489 1491 1492 1494 1496 1498 1500 1502 1504 1506 1508 1509 1511 1513 1515 1516 1518
1486 1491 1487 1485 1483 1479 1478 1477 1476 1475 1474 1473 1472 1471 1470 1468 1467 1466 1465 1466 1467 1467 1468 1469 1471 1472 1474 1476 1478 1480 1482 1484 1486 1488 1490 1492 1494 1496 1498 1500 1502 1504 1506 1508 1510 1512 1514 1515 1517
1485 1488 1483 1480 1479 1478 1477 1476 1476 1473 1471 1470 1468 1467 1467 1466 1464 1463 1462 1462 1462 1463 1465 1466 1467 1469 1471 1472 1474 1476 1478 1481 1483 1485 1487 1489 1491 1494 1496 1498 1500 1502 1504 1506 1508 1510 1512 1514 1515
1483 1483 1480 1478 1477 1477 1475 1473 1473 1472 1468 1466 1465 1463 1462 1461 1460 1460 1459 1459 1459 1459 1461 1462 1463 1465 1467 1468 1470 1472 1475 1477 1479 1481 1484 1486 1488 1491 1493 1495 1498 1500 1502 1504 1506 1508 1510 1512 1514
1482 1479 1478 1476 1476 1475 1473 1471 1469 1466 1462 1463 1462 1460 1458 1456 1455 1455 1454 1455 1455 1455 1456 1457 1459 1460 1462 1464 1466 1468 1470 1473 1475 1477 1480 1482 1484 1487 1489 1492 1494 1497 1499 1501 1503 1506 1508 1510 1512
1479 1477 1475 1474 1473 1471 1469 1467 1464 1458 1457 1457 1456 1455 1453 1452 1451 1450 1450 1450 1450 1451 1451 1452 1454 1456 1457 1459 1462 1464 1466 1468 1470 1473 1475 1478 1480 1483 1485 1488 1491 1493 1496 1498 1501 1503 1505 1508 1510
1477 1475 1473 1471 1469 1467 1465 1461 1460 1451 1453 1452 1450 1449 1448 1447 1446 1445 1445 1445 1445 1446 1446 1447 1448 1451 1452 1454 1456 1459 1461 1464 1466 1468 1470 1473 1476 1479 1481 1484 1487 1490 1492 1495 1498 1500 1503 1505 1508
1476 1475 1471 1467 1466 1464 1463 1458 1453 1449 1450 1448 1446 1444 1443 1442 1441 1440 1440 1440 1440 1440 1441 1442 1443 1445 1447 1449 1451 1453 1456 1459 1461 1463 1466 1468 1471 1474 1477 1480 1482 1485 1488 1491 1494 1497 1500 1502 1505
1476 1476 1474 1466 1463 1461 1465 1457 1447 1446 1446 1443 1441 1439 1438 1436 1435 1435 1435 1435 1435 1435 1436 1437 1438 1440 1442 1444 1446 1448 1450 1453 1455 1458 1461 1463 1466 1469 1472 1475 1478 1481 1484 1487 1490 1493 1495 1498 1501
1479 1479 1475 1468 1462 1460 1461 1454 1443 1442 1441 1438 1435 1434 1432 1430 1429 1429 1429 1429 1430 1430 1431 1431 1433 1434 1436 1439 1441 1443 1445 1447 1450 1452 1455 1457 1460 1464 1467 1470 1473 1476 1479 1482 1485 1488 1491 1494 1497
1478 1477 1473 1469 1461 1460 1458 1450 1440 1436 1436 1433 1430 1428 1427 1426 1424 1424 1424 1424 1424 1425 1426 1426 1427 1429 1431 1433 1435 1438 1439 1441 1444 1446 1449 1452 1455 1458 1461 1464 1467 1470 1473 1476 1479 1483 1487 1490 1493
1474 1474 1472 1465 1459 1459 1453 1445 1436 1431 1430 1427 1424 1423 1422 1421 1420 1420 1420 1419 1419 1420 1421 1420 1422 1423 1425 1427 1429 1431 1432 1435 1437 1440 1443 1446 1449 1452 1455 1458 1461 1464 1468 1470 1473 1477 1481 1484 1488
1473 1473 1469 1461 1456 1454 1448 1440 1431 1427 1425 1422 1421 1419 1418 1417 1415 1415 1415 1415 1414 1415 1415 1415 1416 1418 1419 1421 1423 1426 1427 1429 1432 1434 1437 1440 1443 1446 1449 1451 1454 1458 1461 1465 1468 1471 1474 1478 1482
1469 1470 1465 1462 1456 1452 1450 1438 1428 1422 1420 1418 1417 1416 1415 1415 1413 1411 1411 1410 1410 1410 1411 1411 1412 1413 1415 1417 1418 1421 1423 1424 1426 1427 1430 1434 1437 1440 1443 1446 1448 1452 1455 1458 1461 1464 1468 1471 1476
1466 1461 1460 1459 1461 1459 1454 1448 1429 1423 1419 1415 1414 1413 1412 1411 1410 1408 1407 1406 1406 1406 1407 1407 1408 1409 1410 1411 1413 1415 1416 1417 1419 1421 1423 1427 1430 1433 1436 1439 1442 1445 1448 1452 1455 1458 1461 1465 1468
1461 1458 1458 1458 1460 1461 1455 1454 1433 1425 1420 1413 1411 1410 1409 1408 1407 1406 1404 1404 1403 1403 1403 1403 1403 1404 1405 1406 1408 1410 1411 1412 1414 1416 1417 1421 1423 1426 1429 1432 1435 1438 1441 1445 1449 1452 1455 1458 1461
1458 1459 1459 1461 1463 1463 1452 1454 1437 1426 1418 1413 1410 1408 1407 1406 1404 1403 1401 1401 1400 1399 1399 1399 1399 1399 1400 1401 1402 1404 1405 1407 1408 1409 1411 1414 1416 1419 1422 1425 1428 1431 1434 1438 1441 1445 1448 1451 1455
1460 1465 1469 1468 1471 1462 1448 1447 1434 1419 1415 1412 1410 1408 1406 1404 1401 1400 1398 1398 1397 1396 1396 1396 1395 1395 1396 1397 1397 1399 1400 1401 1402 1403 1405 1407 1409 1411 1414 1417 1420 1424 1427 1430 1434 1437 1440 1444 1447
1460 1463 1470 1472 1469 1458 1448 1442 1427 1416 1413 1410 1409 1407 1405 1402 1400 1398 1397 1395 1394 1393 1392 1392 1391 1391 1392 1392 1393 1394 1395 1396 1397 1398 1399 1400 1402 1404 1407 1411 1413 1416 1419 1423 1426 1429 1433 1436 1439
1460 1462 1461 1467 1467 1466 1449 1438 1425 1414 1411 1409 1408 1406 1404 1402 1399 1397 1396 1394 1393 1391 1389 1388 1387 1387 1388 1388 1388 1389 1389 1390 1391 1392 1393 1394 1396 1398 1400 1403 1406 1409 1412 1414 1418 1421 1425 1428 1431
1455 1458 1465 1466 1467 1460 1448 1441 1429 1417 1413 1410 1407 1405 1403 1401 1399 1396 1394 1392 1390 1388 1386 1385 1384 1384 1384 1384 1385 1385 1385 1385 1385 1386 1387 1388 1389 1391 1393 1396 1399 1402 1404 1407 1410 1412 1416 1420 1423
1457 1459 1460 1464 1463 1462 1451 1433 1418 1415 1411 1410 1408 1405 1402 1400 1397 1394 1393 1390 1388 1385 1383 1382 1381 1380 1380 1380 1380 1380 1380 1380 1380 1380 1381 1382 1383 1385 1387 1389 1391 1394 1396 1399 1402 1404 1408 1411 1415
1451 1453 1457 1462 1462 1461 1454 1430 1411 1411 1409 1407 1406 1404 1402 1399 1396 1393 1390 1388 1385 1383 1381 1379 1378 1377 1376 1376 1376 1375 1375 1375 1374 1374 1375 1376 1377 1378 1380 1382 1383 1385 1388 1391 1394 1396 1400 1403 1406